Location: Holkham
(52.9500°N, 0.8167°E)
Time: 20:56:45
(UTC+00:00)

Cosmos 1766 - Pass Details

Date: 19 May 2025
Orbit: 443 x 457 km, 82.5° (Epoch: 21 June)

Event Time Altitude Azimuth Distance (km) Brightness Sun altitude
Rises 23:01:09 0° 346° (NNW) 2,467 8.5 -16.2°
Reaches altitude 10° 23:03:14 10° 343° (NNW) 1,587 7.0 -16.3°
Maximum altitude 23:06:39 60° 263° (W) 520 3.1 -16.4°
Enters shadow 23:07:46 37° 200° (SSW) 718 3.5 -16.4°
